This demonstration page uses our WeatherBlox Daily Observations layout. Learn more.

Left ArrowRight Arrow

39.12711, -84.51439

Hourly Observations for November 9, 2020

Temp ( °F °C ) Dew Point ( °F °C ) Humidity (%) Winds ( mph kmh ) Pressure ( in mb ) Visibility ( mi km ) Precip ( " mm )
12:07 am 00:07 Clear with Mist and Fog 48 8.9 45 7.2 89 89 Calm 30.28 1025 2 2 0.00 0.00
12:18 am 00:18 Clear with Fog 47 8.3 46 7.8 97 97 Calm 30.27 1025 1 1 0.00 0.00
12:27 am 00:27 Clear with Mist and Fog 47 8.3 46 7.8 97 97 Calm 30.27 1025 3 4 0.00 0.00
12:34 am 00:34 Clear with Mist and Fog 47 8.3 46 7.8 97 97 Calm 30.27 1025 5 8 0.00 0.00
12:53 am 00:53 Clear with Mist and Fog 46 7.8 45 7.2 96 96 Calm 30.25 1025 5 8 0.00 0.00
1:00 am 01:00 Clear with Mist and Fog 46 7.8 45 7.2 96 96 Calm 30.27 1025 2 3 0.00 0.00
1:12 am 01:12 Clear with Mist and Fog 46 7.8 45 7.2 96 96 Calm 30.26 1025 3 5 0.00 0.00
1:15 am 01:15 Clear with Mist and Fog 46 7.8 45 7.2 96 96 Calm 30.26 1025 2 2 0.00 0.00
1:28 am 01:28 Clear with Mist and Fog 45 7.2 44 6.7 97 97 Calm 30.26 1025 3 5 0.00 0.00
1:35 am 01:35 Clear with Mist and Fog 45 7.2 44 6.7 97 97 Calm 30.26 1025 2 2 0.00 0.00
1:53 am 01:53 Clear with Mist and Fog 45 7.2 44 6.7 97 97 Calm 30.24 1024 1 2 0.00 0.00
2:00 am 02:00 Clear with Mist and Fog 45 7.2 43 6.1 93 93 Calm 30.26 1025 1 1 0.00 0.00
2:12 am 02:12 Clear with Mist and Fog 45 7.2 44 6.7 97 97 Calm 30.26 1025 3 4 0.00 0.00
2:19 am 02:19 Clear 45 7.2 43 6.1 93 93 Calm 30.26 1025 10 16 0.00 0.00
2:53 am 02:53 Clear with Mist and Fog 45 7.2 43 6.1 93 93 Calm 30.26 1025 3 5 0.00 0.00
2:55 am 02:55 Clear with Mist and Fog 45 7.2 44 6.7 97 97 Calm 30.27 1025 2 3 0.00 0.00
3:08 am 03:08 Clear with Fog 45 7.2 44 6.7 97 97 Calm 30.27 1025 1 1 0.00 0.00
3:20 am 03:20 Clear with Mist and Fog 46 7.8 45 7.2 96 96 Calm 30.27 1025 3 4 0.00 0.00
3:27 am 03:27 Clear with Mist and Fog 45 7.2 44 6.7 97 97 Calm 30.27 1025 3 5 0.00 0.00
3:53 am 03:53 Clear with Mist and Fog 45 7.2 44 6.7 97 97 Calm 30.24 1024 3 5 0.00 0.00
4:14 am 04:14 Clear with Mist and Fog 45 7.2 44 6.7 97 97 Calm 30.26 1025 2 3 0.00 0.00
4:48 am 04:48 Clear with Mist and Fog 45 7 45 7 100 100 Calm 30.27 1025 3 5 0.00 0.00
4:50 am 04:50 Clear with Mist and Fog 45 7 45 7 100 100 Calm 30.27 1025 2 3 0.00 0.00
4:53 am 04:53 Clear with Mist and Fog 45 7.2 44 6.7 97 97 Calm 30.25 1024 2 2 0.00 0.00
5:01 am 05:01 Clear with Mist and Fog 45 7.2 44 6.7 97 97 Calm 30.27 1025 4 6 0.00 0.00
5:08 am 05:08 Clear with Mist and Fog 44 6.7 44 6.7 100 100 Calm 30.27 1025 2 3 0.00 0.00
5:30 am 05:30 Clear with Mist and Fog 44 6.7 44 6.7 100 100 Calm 30.28 1026 3 4 0.00 0.00
5:41 am 05:41 Clear with Mist and Fog 45 7.2 44 6.7 97 97 Calm 30.28 1026 6 10 0.00 0.00
5:50 am 05:50 Mostly Clear with Mist and Fog 43 6 43 6 100 100 Calm 30.29 1026 2 2 0.00 0.00
5:53 am 05:53 Mostly Cloudy with Mist and Fog 44 6.7 43 6.1 96 96 Calm 30.27 1025 1 2 0.00 0.00
5:57 am 05:57 Clear with Fog 43 6.1 43 6.1 100 100 Calm 30.29 1026 1 1 0.00 0.00
6:05 am 06:05 Clear with Mist and Fog 43 6.1 42 5.6 97 97 Calm 30.29 1026 2 3 0.00 0.00
6:12 am 06:12 Clear with Mist and Fog 43 6.1 43 6.1 100 100 Calm 30.30 1026 3 5 0.00 0.00
6:53 am 06:53 Clear with Mist and Fog 43 6.1 42 5.6 97 97 Calm 30.28 1025 6 10 0.00 0.00
7:53 am 07:53 Sunny 46 7.8 45 7.2 96 96 Calm 30.30 1026 10 16 0.00 0.00
8:53 am 08:53 Sunny 52 11.1 49 9.4 89 89 Calm 30.30 1026 10 16 0.00 0.00
9:53 am 09:53 Sunny 61 16.1 53 11.7 75 75 Calm 30.29 1026 10 16 0.00 0.00
10:53 am 10:53 Sunny 69 20.6 54 12.2 59 59 VRB 3 6 30.27 1025 10 16 0.00 0.00
11:53 am 11:53 Sunny 74 23.3 55 12.8 52 52 SSW 5 7 30.23 1024 10 16 0.00 0.00
12:53 pm 12:53 Sunny 75 23.9 55 12.8 50 50 SSW 5 7 30.19 1023 10 16 0.00 0.00
1:53 pm 13:53 Sunny 78 25.6 55 12.8 45 45 Calm 30.15 1021 10 16 0.00 0.00
2:53 pm 14:53 Sunny 79 26.1 55 12.8 44 44 SSE 7 11 30.13 1020 10 16 0.00 0.00
3:53 pm 15:53 Sunny 78 25.6 55 12.8 45 45 S 7 11 30.13 1020 10 16 0.00 0.00
4:53 pm 16:53 Sunny 76 24.4 54 12.2 47 47 SE 6 9 30.11 1020 10 16 0.00 0.00
5:53 pm 17:53 Clear 67 19.4 54 12.2 63 63 Calm 30.12 1020 10 16 0.00 0.00
6:53 pm 18:53 Clear 62 16.7 54 12.2 75 75 Calm 30.12 1020 10 16 0.00 0.00
7:53 pm 19:53 Clear 60 15.6 54 12.2 80 80 Calm 30.12 1020 10 16 0.00 0.00
8:53 pm 20:53 Clear 56 13.3 53 11.7 90 90 Calm 30.12 1020 10 16 0.00 0.00
9:53 pm 21:53 Clear 55 12.8 52 11.1 90 90 Calm 30.12 1020 10 16 0.00 0.00
10:53 pm 22:53 Clear 55 12.8 52 11.1 90 90 Calm 30.11 1020 10 16 0.00 0.00
11:53 pm 23:53 Clear 53 11.7 52 11.1 96 96 Calm 30.10 1019 10 16 0.00 0.00

Powered by AerisWeather